Location: Clover
(42.5131°N, 114.6874°W)
Time: 23:52:08
(UTC+00:00)

Tiros 1 despin weight - Visible Passes

Search period start: 04 November 2024 00:00
Search period end: 14 November 2024 00:00
Orbit: 571 x 611 km, 48.2° (Epoch: 03 November)

Date Brightness Start Highest point End Pass type
(mag) Time Alt. Az. Time Alt. Az. Time Alt. Az.
05 Nov ? 12:57:35 10° SSE 12:58:48 11° SE 13:00:00 10° ESE visible
06 Nov ? 13:03:10 10° S 13:06:17 19° SE 13:09:23 10° E visible
07 Nov ? 13:09:56 10° SSW 13:13:49 31° SE 13:17:41 10° ENE visible
08 Nov ? 13:17:07 10° SW 13:21:24 49° SE 13:25:38 10° ENE visible
09 Nov ? 11:47:09 15° SSE 11:48:36 17° SE 11:51:24 10° E visible
09 Nov ? 13:24:36 10° SW 13:29:02 76° SSE 13:33:24 10° ENE visible
10 Nov ? 11:55:21 26° SSE 11:56:01 27° SE 11:59:45 10° E visible
10 Nov ? 13:32:16 10° WSW 13:36:42 75° NNW 13:41:05 10° ENE visible
11 Nov ? 12:03:19 43° SSE 12:03:29 43° SE 12:07:40 10° ENE visible
11 Nov ? 13:40:02 10° W 13:44:23 56° NNW 13:48:42 10° ENE visible
12 Nov ? 12:11:04 68° SE 12:11:04 68° SE 12:15:22 10° ENE visible
12 Nov ? 13:47:51 10° W 13:52:07 45° NNW 13:56:20 10° ENE visible
13 Nov ? 12:18:41 81° NNE 12:18:41 81° NNE 12:22:57 10° ENE visible
13 Nov ? 13:55:40 10° WNW 13:59:51 40° N 14:03:59 10° ENE visible
